Погода в Киеве

Погода в Киеве : погода сейчас, прогноз погоды и архив. Всё, что Вы хотите узнать о погоде в Киеве!

Хотите узнать прогноз погоды в Киеве? Тогда Вам сюда: Погода в Киеве

Поиск расширенной информации на нашем сайте:

Другие новости

Новости СМИ2

Главная страница сайта

Новости сайта

03.07.2017

Напоминаем, что на нашем специализированном сайте Метеоцентр.Азия вы можете получить высокодетализированные автоматические прогнозы погоды по пунктам России, СНГ и мира в авиационном формате (включающие направление и скорость ветра, видимость, явления погоды, количество и форму облачности, нижнюю и верхнюю границу облачности).

Рекомендуем: ремонт квартир цены

Погода в Киеве - сегодня

Время (UTC), дата Ветер
(°,м/с) 
Видим.   Явления Облачность Т
(°С)
Тd
(°С)
f(%) Тe
(°С)
Pmin
(гПа)
dP
(гПа)
Po
(мм)
O2
(г/м3)
Тmin Tmax R s Состояние
почвы
00 19.11.17 190 (Ю) 1000 м  слаб. дождь  10/10 150 м 
[Frnb|Ns]
+3.2 +2.4 94 +3  1012  -1.8  744  296      0.8     
03 19.11.17 200 (Ю) 1000 м  дымка{дождь, морось}  10/10 120 м 
[St]
+3.3 +2.8 97 +3  1010.2  -1.8  742  295           
06 19.11.17 230 (ЮЗ) 1000 м  слаб. дождь{морось}  10/10 270 м 
[Frnb|Ns]
+3.5 +3 97 +4  1009.9  -0.3  742  295  +3.1       
09 19.11.17 230 (ЮЗ) 4000 м  дымка{дождь}  10/10 270 м 
[Frnb|Ns]
+4.1 +3.1 93 +4  1009.3  -0.5  742  294           
12 19.11.17 290 (З) 20000 м  {дождь}  9/9 400 м 
[Sc]
+4.5 +2 84 +3  1009.4  0.1  742  294      0.4     
15 19.11.17 250 (З) 4000 м  дымка  10/10 1000 м 
[Sc]
+3.5 +1.7 88 +4  1009.8  0.3  742  295           
18 19.11.17 250 (З) 4000 м  дымка  8/8 1500 м 
[Sc]
+3 +1.5 90 +4  1010.2  0.4  742  296    +4.5  0.4     
21 19.11.17 290 (З) 4000 м  дымка  8/8 1000 м 
[Sc]
+2.1 +0.8 91 +3  1011.3  743  297           
00 20.11.17 300 (СЗ) 4000 м  дымка  3/0 верхняя 
[Ci fib]
+0.9 -0.2 92 1011.3  -0.1  743  298           
03 20.11.17 300 (СЗ) 4000 м  дымка  ясно 
+0.4 -1.3 88 1011.2  -0.1  743  299           
06 20.11.17 тихо ()   10 км    8/0 верхняя 
[Ci fib]
-1 -2.8 88 -1  1011.6  0.2  743  301  -1.1         
09 20.11.17 150 (ЮВ) 20000 м    4/0 верхняя 
[Cs]
+4.7 -0.9 67 +4  1011.6  0.5  743  295           
12 20.11.17 150 (ЮВ) 20000 м    5/0 верхняя 
[Cs]
+5.6 -2.4 56 +5  1010.1  -1.4  742  293           
15 20.11.17 тихо ()   20000 м    6/0 верхняя 
[Ci]
+2.1 -2.9 69 +2  1010.1  -0.3  742  297           
18 20.11.17 260 (З) 20000 м    6/0 средняя, верхняя 
[Ac As|Ci]
+1.4 -2.1 77 +1  1010.1  742  298    +6       
21 20.11.17 280 (З) 10 км    8/0 средняя, верхняя 
[Ac As|Ci sp]
+0.6 -1.4 86 1009.6  -0.6  742  298           
00 21.11.17 300 (СЗ) 4000 м  дымка  10/0 средняя 
[Ac As]
+1.4 -0.5 87 1009.4  -0.1  742  297           
03 21.11.17 290 (З) 4000 м  дымка  9/4 600 м средняя 
[Sc|Ac As]
+1.5 -0.1 89 1009.8  0.4  742  297           
06 21.11.17 280 (З) 20000 м    9/6 300 м средняя 
[Sc|Ac As]
+1 -0.4 90 1010.6  0.7  742  298  +0.3         
09 21.11.17 320 (СЗ) 20000 м  {ливн. осадки}  9/9 450 м кучево-дожд. 
[Cb cap]
+1.9 -0.6 83 1011.2  0.7  743  297           
12 21.11.17 320 (СЗ) 20000 м  {ливн. осадки}  9/9 960 м 
[Sc]
+2.1 -2.5 72 +1  1011  -0.2  743  297      0.0     
15 21.11.17 330 (СЗ) 20000 м    9/9 1080 м 
[Sc]
+1.5 -6.7 54 -1  1012.3  1.2  744  299           
18 21.11.17 310 (СЗ) 20000 м    6/6 1200 м 
[Sc]
+1 -5 64 1012.6  0.3  744  299    +2.6  0.0     
21 21.11.17 290 (З) 20000 м    9/0 средняя 
[Ac und]
+0.7 -2.9 77 -1  1013  0.3  744  299           
00 22.11.17 290 (З) 20000 м    9/0 средняя 
[Ac und]
+0.4 -1.9 85 1013.2  0.2  744  300           
Время (UTC), дата Ветер
(°,м/с) 
Видим.   Явления Облачность Т
(°С)
Тd
(°С)
f(%) Тe
(°С)
Pmin
(гПа)
dP
(гПа)
Po
(мм)
O2
(г/м3)
Тmin Tmax R s Состояние
почвы

Для получения пояснительной информации подведите курсор к названию столбца.

ПОГОДА в Киеве - архив

Всё, что Вы хотите узнать о погоде в Киеве - удобно и подробно!

Выберите нужную дату (начиная с 1 января 2015* года) и нажмите кнопку "Найти".
Будут отображены архивные сводки погоды по пункту Киев, начиная с указанной даты.


Отображать данные в формате CSV (для использования в таблицах Excel)


Внимание! Наш архив погоды предназначен исключительно для личного некоммерческого использования в познавательных целях. Если Вам необходимы официальные справки о состоянии погоды (для производственных, юридических, коммерческих и т.п. целей), обращайтесь в органы Росгидромета.

*Примечание: данная дата относится к архиву по метеостанциям СССР (Россия, СНГ, Балтия).
Архив по метеостанциям Зарубежной Европы и Азии (кроме Китая) хранится 10 дней, по другим регионам земного шара (Китай, Африка, Америка, Австралия, Океания) - 1 день.

Киев - район местоположения метеостанции


Название, широта, долгота, высота метеостанции:
Киев (город) 50.4°ш. 30.6°д. 167 м над ур. моря [Украина]

Дополнительная информация

В oтличие oт бoльшинства пoгoдных сайтoв мы публикуем пoдрoбную метеoинфoрмацию в детальнoм прoфессиoнальнoм фoрмате.

Характеристики температуры и влажнoсти вoздуха измеряются на высoте 2 м в тени вдали oт зданий и деревьев.
Скoрoсть ветра измеряется на высoте 10 м (на урoвне рoста челoвека скoрoсть ветра ниже в 1.5-2 раза). Если метеoстанция нахoдится в гoрoде или в лесу, тo скoрoсть ветра занижена на 2-4 м/с пo сравнению с oткрытым местoм. Скoрoсть ветра над акватoриями крупных рек и oзёр, а также на вершинах хoлмoв на 2-5 м/с выше, чем в oбычных услoвиях.
Атмoсфернoе давление в разных тoчках местнoсти мoжет значительнo oтличаться oт давления на метеoстанции, в зависимoсти oт услoвий рельефа (при пoдъёме на 10 м давление пoнижается примернo на 1 мм рт.ст.).